User: anonymous   Login
Location: Cedar Falls
(42.5280°N, 92.4450°W)
Time: 14:36:47
(UTC-06:00)
Language:

NOSS 3-1 (C) - Orbit

View from above orbital plane
View from above orbital plane
View from above satellite
View from above satellite

Ground track
Ground track

The orbit data is extracted from the following two-line orbital elements,

1 26907U 01040C   17051.74983509 0.00000030  00000-0  36585-4 0    05
2 26907  63.4178 326.3152 0363000 358.6656   1.3344 13.41265280    05
Epoch (UTC): 20 February 2017 17:59:45
Eccentricity: 0.0363000
inclination: 63.4178°
perigee height: 833 km
apogee height: 1376 km
right ascension of ascending node: 326.3152°
argument of perigee: 358.6656°
revolutions per day: 13.41265280
mean anomaly at epoch: 1.3344°
orbit number at epoch: 0

The dashed part of the orbit path shows where the satellite is in the earth's shadow,  

DLR